Overview Statistics Trail Chart Weather Telemetry Raw packets
 

This is the latest recevied weather packets stored in our database for station/object HG8LXL-2. If no packets are shown the sender has not sent any weather packets the latest 10 day(s).

<< 10 11 12 13 14 15 16 >>
Time Temp. Humidity Pressure Rain* Wind** Luminosity Snow
1788364552 31.67° C 20% 1015.1 hPa - - - -
1788364252 31.11° C 20% 1015 hPa - - - -
1788363952 31.11° C 20% 1015.1 hPa - - - -
1788363651 31.67° C 20% 1015 hPa - - - -
1788363354 32.22° C 19% 1015 hPa - - - -
1788363052 31.67° C 21% 1015.1 hPa - - - -
1788362752 31.67° C 20% 1015.1 hPa - - - -
1788362452 32.22° C 19% 1015.1 hPa - - - -
1788362159 31.11° C 21% 1015.2 hPa - - - -
1788361853 31.11° C 21% 1015.2 hPa - - - -
1788361552 31.11° C 20% 1015.2 hPa - - - -
1788361252 31.11° C 20% 1015.2 hPa - - - -
1788360951 31.11° C 20% 1015.4 hPa - - - -
1788360652 31.11° C 21% 1015.3 hPa - - - -
1788360352 31.67° C 20% 1015.3 hPa - - - -
1788360052 32.78° C 18% 1015.3 hPa - - - -
1788359752 31.67° C 20% 1015.5 hPa - - - -
1788359451 31.67° C 20% 1015.7 hPa - - - -
1788359152 31.11° C 21% 1015.7 hPa - - - -
1788358852 31.67° C 19% 1015.5 hPa - - - -
1788358552 32.78° C 19% 1015.5 hPa - - - -
1788358252 31.67° C 20% 1015.6 hPa - - - -
1788357952 31.11° C 21% 1015.7 hPa - - - -
1788357652 31.11° C 20% 1015.8 hPa - - - -
1788357351 32.22° C 20% 1015.8 hPa - - - -

* Rain since midnight (hover to see other rain measurements)
** Current wind speed in m/s (hover to see current wind gust speed)